sat.trackr.live / text

‹ back to catalog

ONEWEB-0158

NORAD 48054 · 2021-025N

PAYLOAD ACTIVE UNKNOWN

§ Identity

Operator
Country
UK
Launch date
2021-03-25
Launch site
VOSTO
Launch vehicle
Mass (kg)
RCS (m²)

Purposes: comms

External: N2YO · Heavens-Above · Gunter

§ Orbital elements

Epoch: 2026-09-15T20:32:24.145728Z

Period
109.63 min
Inclination
87.8925°
Eccentricity
0.0002120
Mean motion
13.13471362 rev/d
Perigee alt
1,208.2 km
Apogee alt
1,211.4 km
Semi-major
7,587.9 km
B*
-3.6435e-4
RAAN
302.1845°
Arg perigee
89.6913°
Mean anomaly
270.4459°
Rev number
26,553

§ Raw data

ONEWEB-01581 48054U 21025N   26258.85583502 -.00000120  00000+0 -36435-3 0  99982 48054  87.8925 302.1845 0002120  89.6913 270.4459 13.13471362265539

JSON: /api/v1/satellites/48054 · /tle

For live sub-satellite position, see the globe view (requires WebGL).

§ Visibility from observer

Set your observer location to see the next 7 days of passes ≥ 10°. The values pass through the URL so the page stays shareable.

No JS? Fill the form by hand. The geolocation button needs JavaScript.